Regional Weather Roundup
Issued by NWS

Home | Current Version | Previous Version | Graphics & Text | Print | Product List | Glossary On
Versions: 1 2 3 4 5 6 7 8 9 10 11 12 13 14 15 16 17 18 19 20 21 22 23 24 25 26 27 28 29 30 31 32 33 34 35 36 37 38 39 40 41 42 43 44 45 46 47 48 49 50
000
ASUS43 KLOT 290600
RWRIL

ILLINOIS REGIONAL WEATHER ROUNDUP
NATIONAL WEATHER SERVICE CHICAGO/ROMEOVILLE IL
100 AM CDT FRI AUG 29 2014

NOTE: "FAIR" INDICATES FEW OR NO CLOUDS BELOW 12,000 FEET WITH NO
SIGNIFICANT WEATHER AND/OR OBSTRUCTIONS TO VISIBILITY.

* THESE STATIONS ARE NOT UNDER NWS QUALITY CONTROL. THEY ALSO MAY NOT
  REPORT WEATHER SUCH AS PRECIPITATION OR FOG.

ILZ001-002-007-009-015-016-024-290700-
NORTHWEST ILLINOIS

CITY           SKY/WX    TMP DP  RH WIND       PRES   REMARKS
MOLINE         FAIR      70  68  93 S8        29.96F
6HR MIN TEMP:  69; 6HR MAX TEMP:  71; 6HR PCP:  0.01;

STERLING*      FAIR      70  64  83 SE7       29.99F
$$

ILZ003-004-008-010-011-017-018-290700-
NORTH CENTRAL ILLINOIS

CITY           SKY/WX    TMP DP  RH WIND       PRES   REMARKS
ROCKFORD       MOCLDY    66  64  93 S3        30.01F FOG
6HR MIN TEMP:  65; 6HR MAX TEMP:  66; 6HR PCP:  0.03;

$$

ILZ005-006-012>014-019>023-290700-
NORTHEAST ILLINOIS

CITY           SKY/WX    TMP DP  RH WIND       PRES   REMARKS
CHICAGO-OHARE  CLOUDY    70  64  81 SE7       30.01F
6HR MIN TEMP:  69; 6HR MAX TEMP:  71; 6HR PCP: TRACE;

CHICAGO-MIDWAY CLOUDY    73  67  81 SE10      30.01F
6HR MIN TEMP:  72; 6HR MAX TEMP:  74; 6HR PCP:  0.02;

AURORA         FAIR      69  65  86 SE5       30.01F FOG
6HR MIN TEMP:  67; 6HR MAX TEMP:  70; 6HR PCP:  0.15;

WAUKEGAN       FAIR      70  67  90 SE7       30.01F
6HR MIN TEMP:  67; 6HR MAX TEMP:  70; 6HR PCP: TRACE;

DUPAGE AIRPORT FAIR      69  65  86 SE6       30.01F
6HR MIN TEMP:  67; 6HR MAX TEMP:  70; 6HR PCP:  0.09;

WHEELING       FAIR      71  65  81 SE3       30.03F
6HR MIN TEMP:  70; 6HR MAX TEMP:  71; 6HR PCP: TRACE;

NORTHERLY ISL    N/A     72  64  76 S12         N/A
$$

LMZ740>746-290700-
SOUTHERN LAKE MICHIGAN

STATION/POSITION SKY/WX   TEMP    WIND        PRES    VSBY  WAVE
                          AIR SEA DIR/SP/G                  HT/PER
                          (F)     (DEG/KT/KT) (MB)    (MI)  (FT/S)
SOUTHERN BUOY              69 69  120/ 16/ 17 1017.5F         2/ 4
WAUKEGAN HARBOR            72     160/ 10/ 13   N/A
HARRISON CRIB              72     160/ 12/ 15   N/A
BURNHAM HARBOR             72     160/  9       N/A
CALUMET HARBOR             73     150/  9/ 13 1015.5F
MICHIGAN CITY              72     120/  9/ 12   N/A
MICHIGAN CITY 6N           72 72  150/ 10/ 12   N/A           1/ 2
ST. JOSEPH                 70 70  130/ 10/ 12   N/A           1/ 2
$$

ILZ025>027-034>036-040-047-049-050-058-095>099-290700-
WEST-CENTRAL ILLINOIS

CITY           SKY/WX    TMP DP  RH WIND       PRES   REMARKS
QUINCY         FAIR      72  68  87 SE9       29.96F
MACOMB*        FAIR      69  68  98 SE6       30.00S
$$

ILZ028>032-037-038-041>044-048-051>054-059>061-290700-
CENTRAL ILLINOIS

CITY           SKY/WX    TMP DP  RH WIND       PRES   REMARKS
DECATUR        FAIR      71  69  93 E3        30.01F
PEORIA         FAIR      72  68  87 SE7       29.99S
6HR MIN TEMP:  71; 6HR MAX TEMP:  73; 6HR PCP:  0.14;

SPRINGFIELD    FAIR      71  68  90 E7        29.99F
6HR MIN TEMP:  71; 6HR MAX TEMP:  77; 6HR PCP:  2.49;

TAYLORVILLE    NOT AVBL
$$

ILZ033-039-045-046-055>057-062-063-290700-
EAST-CENTRAL ILLINOIS

CITY           SKY/WX    TMP DP  RH WIND       PRES   REMARKS
CHAMPAIGN      FAIR      72  69  90 CALM      30.02F
MATTOON        FAIR      72  69  90 NE3       30.01F
$$

ILZ079-100>102-290700-
SOUTHWEST ILLINOIS

CITY           SKY/WX    TMP DP  RH WIND       PRES   REMARKS
BELLEVILLE     FAIR      74  74 100 NE3       29.98S
$$

ILZ064>066-069>071-074>076-080>082-084>086-088>090-092>094-290700-
SOUTH-CENTRAL ILLINOIS

CITY           SKY/WX    TMP DP  RH WIND       PRES   REMARKS
CARBONDALE     FAIR      71  70  96 CALM      29.99F FOG
6HR MIN TEMP:  71; 6HR MAX TEMP:  75; 6HR PCP: TRACE;

MT. VERNON     MOCLDY    73  68  83 CALM      30.00F
$$

ILZ067-068-072-073-078-083-087-091-290700-
SOUTHEAST ILLINOIS

CITY           SKY/WX    TMP DP  RH WIND       PRES   REMARKS
LAWRENCEVILLE  FAIR      74  72  93 CALM      30.01F
$$

ABBREVIATIONS USED IN REMARKS
   TC - TEMPERATURE IN CELSIUS
  WCI - WIND CHILL INDEX
   HX - HEAT INDEX
  VSB - VISIBILITY
$$




USA.gov is the U.S. government's official web portal to all federal, state and local government web resources and services.